Date String (YYYY-MM-DD hh:mm:ss) UTC,Instrument flags,Ambient pressure (hPa),Sample flow (lpm),Bypass flow (lpm),Sample temperature (°C),Ambient temperature (°C),ASC tube jacket temperature (°C),LED temperature (°C),Box temperature (°C),Sample RH (%),Span deviation,Mass concentration (μg/m³),Mass concentration (μg/m³),Mass concentration (μg/m³)
DateTimeUTC,F1_M11,P_M11,Q1_M11,Q2_M11,T1_M11,T2_M11,T3_M11,T4_M11,T5_M11,U1_M11,ZSPAN_M11,X0_M11,X2_M11,X1_M11
2022-09-29 17:00:00,,0830.4,5.00,0.00,30.1,27.1,00.0,38.7,31.9,17.2,0000.0,0009.85,0004.18,0003.46
2022-09-29 17:01:00,,0830.4,5.00,0.00,30.0,27.4,00.0,38.7,31.7,18.5,0000.0,0009.57,0004.13,0003.44
2022-09-29 17:02:00,,0830.4,5.00,0.00,30.0,27.8,00.0,38.7,31.7,19.7,0000.0,0009.56,0004.09,0003.44
2022-09-29 17:03:00,,0830.4,5.01,0.00,30.0,28.1,00.0,38.7,31.8,19.7,0000.0,0008.94,0004.06,0003.44
2022-09-29 17:04:00,,0830.4,4.99,0.00,30.0,28.3,00.0,38.7,31.8,20.1,0000.0,0008.63,0004.04,0003.44
2022-09-29 17:05:00,,0830.4,5.01,0.00,30.0,28.5,00.0,38.7,31.9,20.8,0000.0,0009.31,0004.05,0003.44
2022-09-29 17:06:00,,0830.4,4.99,0.00,30.1,28.6,00.0,38.7,31.9,20.6,0000.0,0010.39,0004.06,0003.44
2022-09-29 17:07:00,,0830.3,5.02,0.00,30.1,28.8,00.0,38.7,32.0,21.5,0000.0,0010.48,0004.06,0003.45
2022-09-29 17:08:00,,0830.3,4.98,0.00,30.1,29.0,00.0,38.7,32.0,22.4,0000.0,0010.69,0004.08,0003.48
2022-09-29 17:09:00,,0830.3,5.01,0.00,30.1,29.1,00.0,38.8,32.1,22.1,0000.0,0011.00,0004.10,0003.50
2022-09-29 17:10:00,,0830.3,4.98,0.00,30.2,29.1,00.0,38.8,32.1,21.5,0000.0,0011.84,0004.13,0003.52
2022-09-29 17:11:00,,0830.3,5.01,0.00,30.2,28.3,00.0,38.8,32.1,22.5,0000.0,0012.82,0004.22,0003.57
2022-09-29 17:12:00,,0830.2,5.01,0.00,30.2,27.0,00.0,38.8,31.9,22.3,0000.0,0013.48,0004.31,0003.63
2022-09-29 17:13:00,,0830.2,5.00,0.00,30.1,26.9,00.0,38.7,31.9,22.6,0000.0,0013.87,0004.37,0003.68
2022-09-29 17:14:00,,0830.2,4.99,0.00,30.1,27.1,00.0,38.7,31.8,23.6,0000.0,0014.13,0004.44,0003.72
2022-09-29 17:15:00,,0830.2,5.00,0.00,30.0,27.5,00.0,38.7,31.8,23.9,0000.0,0015.47,0004.54,0003.76
2022-09-29 17:16:00,,0830.2,5.00,0.00,30.0,27.8,00.0,38.7,31.7,23.4,0000.0,0015.96,0004.68,0003.81
2022-09-29 17:17:00,,0830.1,5.00,0.00,30.0,28.1,00.0,38.7,31.8,22.2,0000.0,0015.97,0004.79,0003.84
2022-09-29 17:18:00,,0830.1,5.01,0.00,30.0,28.3,00.0,38.7,31.8,22.6,0000.0,0016.79,0004.86,0003.85
2022-09-29 17:19:00,,0830.1,4.99,0.00,30.0,28.5,00.0,38.7,31.9,23.1,0000.0,0017.18,0004.94,0003.87
2022-09-29 17:20:00,,0830.1,5.01,0.00,30.0,28.7,00.0,38.7,31.9,23.5,0000.0,0017.78,0005.06,0003.89
2022-09-29 17:21:00,,0830.1,4.99,0.00,30.0,28.9,00.0,38.7,32.0,24.0,0000.0,0017.62,0005.17,0003.92
2022-09-29 17:22:00,,0830.1,4.99,0.00,30.1,28.9,00.0,38.7,32.0,24.1,0000.0,0017.99,0005.29,0003.94
2022-09-29 17:23:00,,0830.1,5.01,0.00,30.1,28.9,00.0,38.7,32.0,24.4,0000.0,0018.36,0005.43,0003.96
2022-09-29 17:24:00,,0830.1,4.99,0.00,30.1,28.0,00.0,38.7,32.0,20.2,0000.0,0018.63,0005.49,0003.95
2022-09-29 17:25:00,,0830.1,5.00,0.00,30.1,26.9,00.0,38.7,31.9,19.3,0000.0,0018.58,0005.43,0003.91
2022-09-29 17:26:00,,0830.1,5.00,0.00,30.0,26.9,00.0,38.7,31.9,20.1,0000.0,0018.03,0005.32,0003.87
2022-09-29 17:27:00,,0830.1,4.99,0.00,30.0,27.2,00.0,38.6,31.8,20.7,0000.0,0017.10,0005.20,0003.83
2022-09-29 17:28:00,,0830.0,5.01,0.00,29.9,27.5,00.0,38.6,31.7,18.7,0000.0,0016.02,0005.08,0003.79
2022-09-29 17:29:00,,0829.9,5.00,0.00,29.9,27.8,00.0,38.6,31.7,18.8,0000.0,0015.83,0004.96,0003.76
2022-09-29 17:30:00,,0830.0,4.99,0.00,29.9,28.1,00.0,38.6,31.7,19.6,0000.0,0015.70,0004.83,0003.72
2022-09-29 17:31:00,,0829.9,5.01,0.00,30.0,28.3,00.0,38.6,31.8,18.8,0000.0,0015.55,0004.70,0003.66
2022-09-29 17:32:00,,0830.0,5.01,0.00,30.0,28.6,00.0,38.6,31.9,19.1,0000.0,0014.92,0004.57,0003.60
2022-09-29 17:33:00,,0829.9,4.99,0.00,30.0,28.7,00.0,38.6,31.9,18.4,0000.0,0013.67,0004.42,0003.54
2022-09-29 17:34:00,,0830.0,5.01,0.00,30.0,28.8,00.0,38.7,31.9,19.5,0000.0,0012.65,0004.26,0003.49
2022-09-29 17:35:00,,0829.9,4.99,0.00,30.1,28.9,00.0,38.7,32.0,18.1,0000.0,0012.23,0004.18,0003.47
2022-09-29 17:36:00,,0830.0,5.01,0.00,30.1,29.0,00.0,38.7,32.0,16.8,0000.0,0012.27,0004.17,0003.48
2022-09-29 17:37:00,,0829.9,5.00,0.00,30.1,28.4,00.0,38.7,32.0,18.0,0000.0,0011.75,0004.19,0003.48
2022-09-29 17:38:00,,0829.9,4.99,0.00,30.1,27.1,00.0,38.7,31.8,18.0,0000.0,0011.58,0004.13,0003.46
2022-09-29 17:39:00,,0829.9,4.98,0.00,30.0,26.8,00.0,38.6,31.8,17.8,0000.0,0011.65,0004.15,0003.46
2022-09-29 17:40:00,,0829.9,5.00,0.00,30.0,27.1,00.0,38.6,31.8,18.7,0000.0,0011.38,0004.20,0003.48
2022-09-29 17:41:00,,0829.9,5.00,0.00,29.9,27.4,00.0,38.6,31.7,19.6,0000.0,0011.25,0004.20,0003.50
2022-09-29 17:42:00,,0829.9,5.00,0.00,29.9,27.7,00.0,38.6,31.7,19.2,0000.0,0009.94,0004.16,0003.52
2022-09-29 17:43:00,,0829.8,4.99,0.00,29.9,28.0,00.0,38.6,31.7,19.3,0000.0,0009.75,0004.18,0003.54
2022-09-29 17:44:00,,0829.9,5.00,0.00,29.9,28.2,00.0,38.6,31.8,19.4,0000.0,0010.35,0004.19,0003.57
2022-09-29 17:45:00,,0829.9,5.00,0.00,30.0,28.4,00.0,38.6,31.9,19.6,0000.0,0010.86,0004.20,0003.58
2022-09-29 17:46:00,,0829.8,4.99,0.00,30.0,28.6,00.0,38.6,31.9,19.0,0000.0,0010.92,0004.20,0003.58
2022-09-29 17:47:00,,0829.8,5.01,0.00,30.0,28.8,00.0,38.6,31.9,19.0,0000.0,0011.16,0004.24,0003.59
2022-09-29 17:48:00,,0829.8,5.00,0.00,30.0,28.9,00.0,38.7,32.0,17.7,0000.0,0011.11,0004.23,0003.59
2022-09-29 17:49:00,,0829.8,5.01,0.00,30.1,28.6,00.0,38.7,32.0,17.6,0000.0,0011.02,0004.24,0003.58
2022-09-29 17:50:00,,0829.8,5.00,0.00,30.1,27.3,00.0,38.7,31.9,17.2,0000.0,0011.13,0004.21,0003.58
2022-09-29 17:51:00,,0829.8,5.00,0.00,30.0,26.8,00.0,38.6,31.8,17.1,0000.0,0010.42,0004.15,0003.56
2022-09-29 17:52:00,,0829.7,5.00,0.00,30.0,27.0,00.0,38.6,31.8,16.8,0000.0,0010.36,0004.13,0003.55
2022-09-29 17:53:00,,0829.7,5.00,0.00,29.9,27.3,00.0,38.6,31.7,16.7,0000.0,0010.87,0004.12,0003.53
2022-09-29 17:54:00,,0829.7,5.00,0.00,29.9,27.6,00.0,38.6,31.7,16.7,0000.0,0011.59,0004.09,0003.51
2022-09-29 17:55:00,,0829.7,5.00,0.00,29.9,27.9,00.0,38.5,31.7,16.9,0000.0,0010.75,0004.06,0003.50
2022-09-29 17:56:00,,0829.7,5.01,0.00,29.9,28.2,00.0,38.6,31.8,16.9,0000.0,0010.14,0003.99,0003.48
2022-09-29 17:57:00,,0829.7,5.01,0.00,29.9,28.4,00.0,38.6,31.8,17.3,0000.0,0009.75,0003.97,0003.46
2022-09-29 17:58:00,,0829.8,5.00,0.00,30.0,28.6,00.0,38.6,31.8,17.1,0000.0,0009.23,0003.94,0003.45
2022-09-29 17:59:00,,0829.7,4.99,0.00,30.0,28.7,00.0,38.6,31.9,17.0,0000.0,0009.44,0003.94,0003.43
